Notices

What's New in latest Release from April 7th, 2021:

- Updated Glossary, including Speed of Maximum Gust, and Total Hourly Precipitation

- Updated national and regional climate services offices contacts and prices information

- Addition of station inventory lists for 1981-2010, 1971-2000, and 1961-1990 Normals.

If you haven't already, please take our survey and provide feedback about our website: https://eccc.sondage-survey.ca/f/LanguageSelection.aspx?s=442ca660-fcf1-47c0-95a9-59707d6fd709

Hourly Data Report for January 22, 2017

TORONTO CITY
ONTARIO

43°40'00.000" N
79°24'00.000" W
112.50 m
6158355
71508
XTO

Download Data

Hourly Data (January 2017)
Hourly Data Report for January 22, 2017
TIME
LST
Temp Definition
°C
Dew Point Definition
°C
Rel Hum Definition
%
Precip. Amount Definition
mm

Wind Dir Definition
10's deg

Wind Spd Definition
km/h
Visibility Definition
km
Stn Press Definition
kPa
Hmdx Definition


Wind Chill Definition


Weather Definition


00:00 4.7 4.0 95 0.0 LegendMM LegendMM   99.21     LegendNANA
01:00 4.4 3.7 95 0.0 LegendMM LegendMM   99.20     LegendNANA
02:00 4.2 3.6 96 0.0 LegendMM LegendMM   99.21     LegendNANA
03:00 4.3 3.8 97 0.0 LegendMM LegendMM   99.24     LegendNANA
04:00 4.2 3.8 97 0.0 LegendMM LegendMM   99.20     LegendNANA
05:00 4.1 3.7 97 0.0 LegendMM LegendMM   99.19     LegendNANA
06:00 3.9 3.5 98 0.0 LegendMM LegendMM   99.16     LegendNANA
07:00 3.7 3.4 98 0.0 LegendMM LegendMM   99.17     LegendNANA
08:00 3.6 3.3 98 0.0 LegendMM LegendMM   99.20     LegendNANA
09:00 3.7 3.4 98 0.0 LegendMM LegendMM   99.27     LegendNANA
10:00 3.8 3.5 98 0.0 LegendMM LegendMM   99.37     LegendNANA
11:00 3.8 3.6 98 0.0 LegendMM LegendMM   99.39     LegendNANA
12:00 4.0 3.6 98 0.0 LegendMM LegendMM   99.32     LegendNANA
13:00 4.5 3.8 95 0.0 LegendMM LegendMM   99.24     LegendNANA
14:00 5.1 3.7 91 0.0 LegendMM LegendMM   99.22     LegendNANA
15:00 5.3 3.7 89 0.0 LegendMM LegendMM   99.21     LegendNANA
16:00 5.8 3.7 86 0.0 LegendMM LegendMM   99.22     LegendNANA
17:00 5.4 3.4 87 0.0 LegendMM LegendMM   99.26     LegendNANA
18:00 5.2 2.9 85 0.0 LegendMM LegendMM   99.28     LegendNANA
19:00 4.8 2.5 85 0.0 LegendMM LegendMM   99.32     LegendNANA
20:00 4.2 1.4 82 0.0 LegendMM LegendMM   99.36     LegendNANA
21:00 4.0 0.5 78 0.0 LegendMM LegendMM   99.39     LegendNANA
22:00 3.4 -0.3 77 0.0 LegendMM LegendMM   99.43     LegendNANA
23:00 3.1 -0.2 79 0.0 LegendMM LegendMM   99.42     LegendNANA

Notes on Data Quality.

Legend

  • E = Estimated
  • M = Missing
  • NA = Not Available*
  • [empty] = Indicates an unobserved value
Date modified: